Zurück zum Katalog

STARLINK-30068

AktivKommunikationVLEO
NORAD 56698·PAYLOAD·🇺🇸 United States

Gestartet May 19, 2023 von Cape Canaveral Space Force Station

Loading…

Nächste Überflüge (nächste 24 Stunden)

TLE

AktuellSource: CelesTrak SupGP

Epoche: Sep 14, 2026, 21:26 UTC

1 56698C 23067L   26257.89354167  .00015430  00000+0  55905-3 0  2573
2 56698  43.0018 271.3658 0001421 260.6356 146.0961 15.27560128    15

Verfolge STARLINK-30068 in Echtzeit mit AllMySat

Download on the App Store